Simultaneous Nadir Overpasses (SNOs) Predictions

Prediction of SNOs between METOP-B and TERRA Satellite Orbit:

Table of predicted SNOs for the next 14.0 days since TLE Epoch: 6/14/2024
Index Date (METOP-B) Time (METOP-B) Lat,Lon (METOP-B) SZA (METOP-B ) Date (TERRA) Time (TERRA) Lat,Lon (TERRA) SZA (TERRA ) Distance(km) Time Diff (sec)
1 06/16/2024 02:24:58 -80.12, -15.67 122.62 06/16/2024 02:25:22 -80.12, -15.76 122.63 1.79 24
2 06/16/2024 03:15:35 80.21, 152.61 57.53 06/16/2024 03:14:39 80.22, 152.76 57.53 2.85 56
3 06/18/2024 16:55:08 -80.07, 126.24 122.78 06/18/2024 16:56:03 -80.06, 126.11 122.78 2.47 55
4 06/18/2024 17:45:45 80.16, -65.52 57.37 06/18/2024 17:45:20 80.16, -65.41 57.37 2.22 25
5 06/21/2024 08:15:54 80.13, 76.59 57.29 06/21/2024 08:16:00 80.12, 76.54 57.28 1.04 6
6 06/21/2024 09:06:30 -80.28,-114.43 122.46 06/21/2024 09:05:18 -80.27,-114.52 122.50 1.81 72
7 06/23/2024 22:46:04 80.06,-141.65 57.21 06/23/2024 22:46:40 80.06,-141.67 57.21 0.33 36
8 06/23/2024 23:36:40 -80.22, 27.32 122.55 06/23/2024 23:35:58 -80.21, 27.26 122.57 1.31 42
9 06/26/2024 13:16:12 80.01, 0.34 57.21 06/26/2024 13:17:18 80.01, 0.23 57.21 2.24 66



Historial Predications of SNOs between METOP-B and TERRA
